Regional Weather Roundup
Issued by NWS Northern Indiana

Home | Current Version | Previous Version | Graphics & Text | Print | Product List | Glossary On
Versions: 1 2 3 4 5 6 7 8 9 10 11 12 13 14 15 16 17 18 19 20 21 22 23 24 25 26 27 28 29 30 31 32 33 34 35 36 37 38 39 40 41 42 43 44 45 46 47 48 49 50
000
ASUS43 KIWX 221901
RWRIWX

KIWX WEATHER ROUNDUP
NATIONAL WEATHER SERVICE NORTHERN INDIANA
300 PM EDT TUE AUG 22 2017

NOTE: "FAIR" INDICATES FEW OR NO CLOUDS BELOW 12,000 FEET WITH NO
SIGNIFICANT WEATHER AND/OR OBSTRUCTIONS TO VISIBILITY.

* THESE STATIONS ARE NOT UNDER NWS QUALITY CONTROL. THEY ALSO MAY NOT
  REPORT WEATHER SUCH AS PRECIPITATION OR FOG.

INZ001>027-222000-
NORTHERN INDIANA

CITY           SKY/WX    TMP DP  RH WIND       PRES   REMARKS
GARY*          PTSUNNY   79  61  53 W8        29.91R
MICHIGAN CITY* PTSUNNY   75  63  64 NW7G16    29.91S
SOUTH BEND     CLOUDY    73  68  84 NW14      29.90R
ELKHART*       PTSUNNY   73  66  78 NW9       29.89R
GOSHEN         PTSUNNY   78  64  61 W20       29.87S
MONTICELLO*    CLOUDY    75  68  79 W9        29.91S
FORT WAYNE     CLOUDY    77  66  68 W13       29.89S
PERU/GRISSOM   PTSUNNY   77  69  76 W15       29.90S

$$
INZ028>050-222000-
CENTRAL INDIANA

CITY           SKY/WX    TMP DP  RH WIND       PRES   REMARKS
LAFAYETTE      CLOUDY    76  68  76 W10       29.92R
KOKOMO*        CLOUDY    76  69  79 W14       29.92S
MUNCIE*        CLOUDY    78  67  68 W13G21    29.91S
INDIANAPOLIS   CLOUDY    78  69  73 W18       29.93F

$$
MIZ043>046-050>051-056>058-064>065-071>073-077>080-222000-
SOUTHWEST LOWER MICHIGAN

CITY           SKY/WX    TMP DP  RH WIND       PRES   REMARKS
BATTLE CREEK   PTSUNNY   73  63  70 W18G26    29.86S
BENTON HARBOR  MOSUNNY   76  63  64 W16G22    29.89R
COLDWATER*     CLOUDY    74  67  81 W14       29.85R
HILLSDALE*     HVY RAIN  68  64  88 W10G17    29.85R
HOLLAND        MOSUNNY   75  64  68 W14G25    29.86R
GRAND RAPIDS   PTSUNNY   75  63  66 W18G25    29.82S
KALAMAZOO      CLOUDY    74  61  63 NW16G23   29.86S
STURGIS*       CLOUDY    73  65  76 W9G20     29.87R
THREE RIVERS*  PTSUNNY   76  63  64 W20G30    29.87S

$$
OHZ001>008-015>018-024>025-222000-
NORTHWEST OHIO

CITY           SKY/WX    TMP DP  RH WIND       PRES   REMARKS
DEFIANCE       CLOUDY    77  66  68 SW9G21    29.85F
FINDLAY        CLOUDY    77  67  71 SW16G24   29.86S
TOLEDO EXPRESS CLOUDY    76  68  76 SW22G28   29.83S
TOLEDO METCALF CLOUDY    78  67  68 SW14      29.83S
LIMA           CLOUDY    76  70  82 W12       29.89S

$$
AND FOR LAKE MICHIGAN COASTAL AND OPEN LAKE BUOY OBSERVATIONS

STATION/POSITION TEMP    WIND        PRES    VSBY  WAVE
                 AIR SEA DIR/SP/G                  HT/PER
                 (F)     (DEG/KT/KT) (MB)    (MI)  (FT/S)
CALUMET HARBOR    76     290/  7/ 15 1011.9R
MICHIGAN CITY     73     290/ 14/ 15   N/A
BURNS HARBOR      74     300/ 11/ 12 1012.9R
SAINT JOSEPH      73     300/ 13/ 17 1013.2
SOUTH LAKE BUOY   71 71  310/ 12/ 14 1010.9          3/ 5
4 MI NW BRIDGMAN  72 73  300/ 14/ 17 1012.2R         5/ 5
MICHIGAN CITY     73 74  320/ 12/ 16   N/A           4/ 4

$$
&&




USA.gov is the U.S. government's official web portal to all federal, state and local government web resources and services.